Weather in Astradamovka

Russia / Ulyanovsk Oblast     54°32′47″N   47°08′18″E
temp.,
°C
wind,
m/s
gust,
m/s
humid.,
%
clouds,
%
prec.,
mm/h
press.,
hPa
HPBL,
m
27 january, thu
thu2701:00−19ssw239999 0.0 101940
04:00−22sw2210079 0.1 102016
07:00−23ssw2210089 0.0 102117
10:00−21ssw2310067 0.0 102240
13:00−13sw369378 0.0 1021208
16:00−12s229689 0.0 102137
19:00−15sse229976 0.0 102117
22:00−14sse229862 0.1 102133
28 january, fri
fri2801:00−15sse229987 0.0 102128
04:00−15sse229968 0.1 102020
07:00−14se229987 0.0 101929
10:00−8sse389594 0.2 1019243
13:00−6sse4892100 0.1 1018306
16:00−6se3791100 0.1 1017283
19:00−8ese3995100 0.1 1017233
22:00−9se389690 0.1 1015202
29 january, sat
sat2901:00−13se229972 0.0 101539
04:00−17se2210096 0.1 101513
07:00−18sse22100100 0.0 101416
10:00−13sse2796100 0.0 1013145
13:00−8sse4994100 0.2 1011289
16:00−6sse4995100 0.8 1010375
19:00−7sse4895100 0.4 1010302
22:00−8sse3895100 0.6 1009222
30 january, sun
sun3001:00−8sse239782 0.3 100867
04:00−8sse229784 0.5 100732
07:00−9sse229877 0.1 100517
10:00−9s2298100 0.2 100539
13:00−2ssw479484 0.2 1003410
16:00−2ssw489499 0.4 1003601
19:00−5ssw499477 0.2 1004237
22:00−9s41095100 0.2 1004223
31 january, mon
mon3101:00−8s61392100 0.0 1003430
04:00−6sse61491100 0.0 1001495
07:00−5s71593100 0.4 1000653
10:00−3sse71594100 0.9 999718
13:00−1s71497100 1.2 998846
16:000s71495100 2.4 997939
19:000s71496100 0.1 997907
22:000s91694100 0.3 997937